Regional Weather Roundup
Issued by NWS

Home | Current Version | Previous Version | Graphics & Text | Print | Product List | Glossary Off
Versions: 1 2 3 4 5 6 7 8 9 10 11 12 13 14 15 16 17 18 19 20 21 22 23 24 25 26 27 28

000
ASUS45 KCYS 230110
RWRWY

WYOMING REGIONAL WEATHER ROUNDUP
NATIONAL WEATHER SERVICE CHEYENNE WY
700 PM MDT THU JUN 22 2017

NOTE:  "FAIR" INDICATES FEW OR NO CLOUDS BELOW 12,000 FEET
WITH NO SIGNIFICANT WEATHER AND/OR OBSTRUCTIONS TO VISIBILITY.

WYZ001-230200-
YELLOWSTONE NATIONAL PARK

CITY           SKY/WX    TMP DP  RH WIND       PRES   REMARKS
LK YELLOWSTONE   N/A     60  15  17 W12G20    30.22R
W YELLOWSTONE  NOT AVBL

$$
WYZ002>013-054>058-071-098>099-230200-
NORTHERN WYOMING

CITY           SKY/WX    TMP DP  RH WIND       PRES   REMARKS
JACKSON        SUNNY     66  25  20 NW12      30.14S
CODY           FAIR      63  28  26 N18G29    30.13R
GREYBULL       FAIR      74  24  15 N28G37    30.00R
WORLAND        FAIR      74  27  17 N20G28    30.00R
SHERIDAN       FAIR      68  33  27 NW17G26   30.07R
BUFFALO        FAIR      64  29  26 N25G39    30.09R
GILLETTE         N/A     71  32  23 N21G35    30.02R
NEWCASTLE      FAIR      72  32  23 NW16      30.00R

$$
WYZ014>020-022>026-101>103-230200-
CENTRAL WYOMING

CITY           SKY/WX    TMP DP  RH WIND       PRES   REMARKS
BIG PINEY      FAIR      71  28  20 N18G26    30.15R
PINEDALE       FAIR      68  23  18 NW18G28   30.16R
DUBOIS         FAIR      64  16  15 N22G30    30.14R
LANDER         FAIR      75  36  24 N21       30.02R
RIVERTON       FAIR      73  30  20 N23G30    30.02R
CASPER         FAIR      74  39  28 N15       30.00R
DOUGLAS        FAIR      73  38  27 NE9       30.00R

$$
WYZ021-027>030-104>119-230200-
SOUTHERN WYOMING

CITY           SKY/WX    TMP DP  RH WIND       PRES   REMARKS
EVANSTON       FAIR      72  34  24 W15       30.17R
KEMMERER         N/A     70  30  23 NW20      30.18R
FORT BRIDGER   FAIR      76  24  14 W17G28    30.17R
ROCK SPRINGS   FAIR      76  19  11 W24G33    30.07R
DIXON          FAIR      83  19   9 NW17      30.04R
RAWLINS        FAIR      80  26  13 NW22G29   30.01S
SARATOGA       FAIR      81  28  15 NW16      30.03S
LARAMIE        FAIR      71  39  31 E20       30.06R
CHEYENNE       FAIR      73  38  27 NE12      30.03S
TORRINGTON     FAIR      78  48  34 NE14      29.93R
PINE BLUFFS    FAIR      77  48  36 NE13      29.98S

$$




USA.gov is the U.S. government's official web portal to all federal, state and local government web resources and services.